Ft Pierce, FL

3:59 AM EDT on May 29, 2017 (GMT -0400)
Saint Lucie County International

Weather History for KFPR - May, 2014

Change the Weather History Date:

Friday, May 2, 2014

  Actual Average Record
Temperature  
Mean Temperature 81 °F -  
Max Temperature 90 °F 83 °F 95 °F (2002)
Min Temperature 72 °F 64 °F 52 °F (1992)
Cooling Degree Days 16    
Growing Degree Days 31 (Base 50)    
Moisture  
Dew Point 69 °F    
Average Humidity 75    
Maximum Humidity 93    
Minimum Humidity 48    
Precipitation  
Precipitation 0.03 in - - ()
Sea Level Pressure  
Sea Level Pressure 29.93 in    
Wind  
Wind Speed 5 mph (SSW)    
Max Wind Speed 14 mph    
Max Gust Speed 20 mph    
Visibility 10 miles    
Events Rain    
Averages and records for this station are not official NWS values.
T = Trace of Precipitation, MM = Missing Value Source: NWS Daily Summary

Daily Weather History Graph

Daily Weather History Graph

Search for Another Location

Airport or City:

Trip Planner

Search our weather history database for the weather conditions in past years. The results will help you decide how hot, cold, wet, or windy it might be!

Date:

Astronomy

May. 02, 2014 Rise Set
Actual Time 6:41 AM EDT 7:55 PM EDT
Civil Twilight 6:16 AM EDT 8:20 PM EDT
Nautical Twilight 5:47 AM EDT 8:49 PM EDT
Astronomical Twilight 5:17 AM EDT 9:20 PM EDT
Moon 9:22 AM EDT (5/2) 11:11 PM EDT (5/2)
Length of Visible Light 14h 03m
Length of Day
13h 14m
Waxing Crescent, 12% of the Moon is Illuminated
May 2
Waxing Crescent
May 6
First Quarter
May 14
Full
May 21
Last Quarter
May 28
New

Hourly Weather History & Observations

Time (EDT) Temp. Heat Index Dew Point Humidity Pressure Visibility Wind Dir Wind Speed Gust Speed Precip Events Conditions
12:53 AM 73.0 °F - 66.9 °F 81% 29.99 in 10.0 mi Calm Calm - N/A   Clear
1:53 AM 72.0 °F - 68.0 °F 87% 29.97 in 10.0 mi Calm Calm - N/A   Clear
2:53 AM 73.9 °F - 69.1 °F 85% 29.95 in 10.0 mi SSE 3.5 mph - N/A   Scattered Clouds
3:53 AM 75.9 °F - 70.0 °F 82% 29.95 in 10.0 mi South 5.8 mph - N/A   Scattered Clouds
4:53 AM 75.0 °F - 70.0 °F 84% 29.94 in 10.0 mi South 5.8 mph - N/A   Scattered Clouds
5:53 AM 75.0 °F - 70.0 °F 84% 29.94 in 10.0 mi South 8.1 mph - N/A   Clear
6:53 AM 75.9 °F - 70.0 °F 82% 29.94 in 10.0 mi South 6.9 mph - N/A   Clear
7:53 AM 77.0 °F - 71.1 °F 82% 29.94 in 10.0 mi South 8.1 mph - N/A   Clear
8:53 AM 80.1 °F 83.6 °F 71.1 °F 74% 29.93 in 10.0 mi South 9.2 mph - N/A   Clear
9:53 AM 82.0 °F 85.9 °F 70.0 °F 67% 29.92 in 10.0 mi SSE 12.7 mph - N/A   Scattered Clouds
10:53 AM 84.0 °F 88.4 °F 70.0 °F 63% 29.94 in 10.0 mi SSW 11.5 mph - N/A   Mostly Cloudy
11:53 AM 86.0 °F 90.1 °F 69.1 °F 57% 29.94 in 10.0 mi SSW 11.5 mph - N/A   Mostly Cloudy
12:53 PM 87.1 °F 90.6 °F 68.0 °F 53% 29.92 in 10.0 mi SSW 12.7 mph - N/A   Clear
1:53 PM 90.0 °F 94.5 °F 69.1 °F 50% 29.90 in 10.0 mi SSW 11.5 mph 17.3 mph N/A   Partly Cloudy
2:53 PM 89.1 °F 93.7 °F 69.1 °F 52% 29.88 in 10.0 mi SSW 13.8 mph 19.6 mph N/A   Scattered Clouds
3:53 PM 88.0 °F 90.7 °F 66.9 °F 49% 29.87 in 10.0 mi SW 12.7 mph 19.6 mph N/A   Scattered Clouds
4:53 PM 87.1 °F 88.9 °F 64.9 °F 48% 29.87 in 10.0 mi WSW 9.2 mph - N/A   Partly Cloudy
5:53 PM 78.1 °F - 70.0 °F 76% 29.90 in 10.0 mi North 9.2 mph 18.4 mph N/A   Mostly Cloudy
6:39 PM 75.9 °F - 69.1 °F 79% 29.91 in 10.0 mi North 6.9 mph - 0.00 in Rain Light Rain
6:53 PM 75.0 °F - 70.0 °F 84% 29.91 in 10.0 mi North 4.6 mph - 0.00 in   Mostly Cloudy
7:53 PM 73.0 °F - 70.0 °F 90% 29.93 in 6.0 mi NNW 5.8 mph - 0.02 in Rain Rain
8:53 PM 72.0 °F - 69.1 °F 91% 29.94 in 10.0 mi Calm Calm - 0.01 in   Partly Cloudy
9:53 PM 72.0 °F - 70.0 °F 93% 29.96 in 9.0 mi Calm Calm - N/A   Partly Cloudy
10:53 PM 72.0 °F - 69.1 °F 91% 29.97 in 10.0 mi Calm Calm - N/A   Partly Cloudy
11:53 PM 73.0 °F - 69.1 °F 87% 29.97 in 10.0 mi Calm Calm - N/A   Overcast